Dewpoint
72 73 74 75 74 74 74 74 73 73 73 73 73 73 73 73 72 73 72 72 72 72 72 72 72 72 72 71 71 70 70 69 69 68 68 67 66 66 66 65 65 65 65 66 67 68 69 69 69 68 69 70 70 70 71 70 69 70 70 69 69 70 70 70 70 70 70 69 69 70 69 69 69 70 70 70 70 70 70 69 69 68 68 68 69
73 74 74 74 74 74 74 74 73 72 73 73 73 73 72 72 72 72 72 72 72 72 72 72 72 72 71 71 70 70 69 69 69 68 68 67 68 68 68 68 66 66 65 66 67 67 68 69 69 69 69 69 69 70 70 70 70 69 69 69 69 69 69 69 69 69 69 68 69 68 69 69 69 69 69 70 69 70 69 69 69 68 68 69 69
73 73 74 74 74 74 74 73 72 73 72 73 73 72 72 72 72 72 72 72 72 72 72 71 72 71 71 70 70 69 69 69 69 68 68 68 68 67 68 68 68 67 66 66 66 67 67 68 68 69 68 68 69 70 70 69 69 69 69 69 69 69 68 69 69 69 68 69 69 69 69 69 68 68 68 69 69 69 69 69 68 69 68 68 69
73 74 74 74 74 74 73 73 72 72 72 73 72 72 72 72 72 72 72 72 72 72 72 72 71 71 71 70 70 70 69 69 69 68 68 68 68 67 68 68 68 68 67 66 66 67 67 68 69 68 69 69 69 69 69 69 70 70 70 69 70 69 69 69 69 69 69 69 68 68 68 66 67 68 67 68 69 69 69 69 69 68 69 68 69
73 74 74 74 73 74 73 73 73 72 72 72 72 72 72 72 71 72 72 71 71 71 72 71 71 71 71 70 70 70 69 69 69 68 68 68 68 68 68 68 67 67 67 66 66 67 67 68 69 69 69 69 69 69 69 69 70 69 69 69 68 69 69 69 69 69 69 69 69 68 66 66 65 66 67 66 66 68 68 69 68 68 69 69 69
73 73 74 73 73 73 74 73 73 73 73 72 72 72 72 71 72 72 72 71 72 72 71 72 71 71 70 70 69 70 69 69 68 68 68 68 69 68 67 67 67 67 68 68 67 67 68 68 68 68 68 68 69 69 69 69 68 68 67 67 67 68 69 68 69 69 69 69 69 67 66 66 66 66 66 66 66 66 67 68 68 68 68 69 68
73 73 73 73 73 73 73 73 72 73 73 72 72 72 72 72 73 71 70 71 71 71 71 71 71 70 70 70 69 69 69 69 68 68 68 68 68 69 67 67 67 67 68 68 68 68 68 68 68 68 68 68 69 68 68 68 67 68 68 68 69 69 69 68 69 69 69 68 66 66 66 66 66 66 67 66 66 65 65 67 68 68 68 69 68
73 73 73 73 73 73 73 73 73 73 72 72 73 73 73 73 73 71 72 71 71 71 71 71 71 70 70 70 70 69 69 69 68 68 68 68 69 69 68 69 69 69 69 69 69 69 68 69 69 69 69 69 69 68 68 68 68 68 68 69 69 69 69 69 69 69 68 66 66 66 66 65 63 63 66 66 66 65 65 65 67 67 67 68 68
72 72 73 73 73 73 73 73 73 72 72 73 73 73 72 72 73 72 72 71 71 71 71 71 70 70 70 70 69 69 69 69 68 68 68 68 71 71 70 70 70 70 70 70 69 68 68 68 69 69 70 69 69 69 68 68 68 68 69 69 69 70 69 69 68 67 66 65 65 65 65 65 64 62 62 63 63 64 65 66 66 66 67 68 68
72 72 72 72 72 73 73 73 73 73 73 73 73 73 73 72 72 73 72 71 71 71 71 71 70 70 70 70 69 69 69 69 68 68 68 70 71 70 70 71 71 70 69 69 69 69 69 69 69 70 70 69 69 68 69 69 68 69 69 68 68 68 68 68 68 67 65 65 65 65 66 67 64 63 64 64 64 65 64 65 67 66 67 68 68
72 72 72 72 73 73 73 73 73 72 73 73 73 73 73 72 72 72 72 72 71 71 71 71 70 70 71 70 69 69 70 69 68 69 69 69 70 71 71 71 70 70 69 69 70 70 70 70 70 70 70 69 68 68 69 68 68 69 68 67 67 67 66 66 64 61 62 62 62 64 66 66 62 62 64 64 63 63 63 63 63 64 65 66 67
72 72 72 72 73 73 73 73 73 73 73 73 73 73 73 73 72 72 72 71 71 71 71 70 71 71 71 71 70 69 69 69 69 69 70 71 71 71 71 71 70 70 69 69 69 70 70 69 70 70 69 69 69 69 69 68 69 69 67 66 66 66 65 65 61 61 61 61 62 61 61 61 61 60 63 63 63 63 63 64 64 64 64 65 66
71 72 72 73 73 73 73 73 73 73 73 73 73 73 73 72 72 72 72 72 72 71 71 71 71 71 71 70 69 69 69 69 69 70 71 71 71 71 71 71 70 70 70 70 70 69 69 70 70 69 69 69 69 69 69 69 69 69 67 66 66 65 65 63 60 60 61 61 62 61 61 61 61 63 63 62 63 64 63 63 63 64 66 66 66
71 72 72 72 72 73 73 73 73 73 73 73 73 73 73 72 72 72 72 72 72 72 71 71 72 71 71 71 70 70 70 70 70 70 71 72 72 72 71 71 70 70 70 70 70 70 70 70 69 69 70 70 70 69 69 69 69 69 67 66 65 65 65 64 64 61 62 62 63 62 62 63 62 64 63 63 63 64 64 64 64 64 65 65 65
71 72 72 72 72 72 73 73 73 73 73 73 73 73 73 72 72 72 72 72 72 72 72 72 72 72 71 71 70 70 70 70 69 71 71 71 71 71 71 70 70 70 70 70 70 70 70 70 70 70 70 70 70 69 69 69 69 69 66 65 65 65 64 61 61 61 62 63 63 62 61 62 64 64 62 63 63 63 63 62 63 64 64 64 64
72 72 72 72 72 72 72 73 73 73 73 73 73 73 73 72 72 72 72 72 72 72 72 72 72 72 72 71 71 70 70 70 70 71 71 71 71 71 71 70 70 70 70 70 70 70 70 70 70 70 70 70 70 69 69 69 70 68 66 65 65 64 64 63 60 61 61 62 63 63 62 62 64 63 63 63 63 63 64 64 63 62 63 63 64
72 72 72 72 72 72 71 72 72 73 73 73 73 73 73 72 72 72 72 72 72 72 72 72 72 73 72 71 71 71 71 70 71 71 71 71 71 71 70 70 70 70 70 70 70 70 70 70 70 70 70 70 70 70 70 70 70 68 66 66 65 64 64 63 60 61 62 63 62 61 61 62 63 63 63 64 63 63 63 63 63 63 64 66 66
72 72 71 72 72 71 72 72 72 72 72 72 73 73 72 72 72 72 72 72 72 72 72 72 72 72 72 71 71 71 71 71 71 71 71 71 71 70 70 70 70 70 71 70 70 70 70 70 70 70 70 70 70 70 70 69 68 68 67 66 65 64 64 64 61 61 62 64 62 64 63 65 65 63 63 62 62 63 63 63 63 63 65 66 65
71 71 71 71 71 71 72 72 72 72 71 71 71 72 72 72 72 72 72 72 72 72 72 72 72 72 72 72 72 72 71 71 71 71 70 70 70 70 70 70 70 70 70 70 71 71 71 70 70 70 70 70 70 70 70 68 67 66 66 65 65 65 65 64 61 62 63 62 62 62 63 65 65 63 63 63 63 63 63 63 62 64 65 65 64
71 71 71 71 71 71 71 71 71 71 71 71 71 71 72 72 72 72 72 72 72 72 71 71 71 71 71 71 71 71 71 71 71 71 71 70 70 70 70 70 70 70 70 70 70 70 71 70 70 70 70 70 70 70 69 69 67 67 66 66 66 65 61 61 60 61 61 63 63 61 65 64 63 63 63 62 62 63 63 63 62 62 63 63 63
70 70 71 71 71 71 71 71 71 71 71 71 71 71 71 72 72 72 72 72 72 71 71 71 71 71 70 71 71 70 70 70 70 70 70 70 70 70 70 70 70 70 69 69 70 70 69 70 70 70 70 70 70 70 70 69 67 67 67 66 65 60 61 61 62 64 63 62 63 61 63 62 63 62 62 63 63 62 62 62 63 62 62 62 62
69 70 70 70 71 71 71 71 71 71 71 71 71 70 71 71 70 71 71 71 71 71 70 70 70 70 70 70 69 70 69 69 69 71 70 70 69 70 70 70 70 69 69 69 69 69 69 70 70 70 70 70 68 65 66 68 67 67 66 64 61 61 61 62 62 62 62 61 62 63 63 62 62 62 62 62 61 62 62 62 61 62 62 61 61
68 69 69 70 70 70 70 70 70 70 70 70 70 70 70 70 70 70 70 70 70 70 70 70 69 69 69 69 70 69 68 68 69 70 69 70 70 70 70 70 70 69 69 69 69 69 69 68 69 70 70 68 65 65 64 65 65 66 65 62 61 62 61 61 61 61 61 61 60 63 62 63 62 62 62 62 61 61 61 61 61 61 61 61 60
67 68 69 70 70 70 70 70 70 70 70 70 70 69 70 70 70 70 70 70 70 70 69 69 69 68 69 69 68 68 68 67 71 71 70 69 69 69 69 70 70 69 69 69 69 68 68 68 69 69 66 66 64 64 63 62 62 61 61 61 61 61 61 61 61 61 62 63 61 63 63 63 63 63 62 61 61 61 61 61 61 60 60 60 60
67 67 68 69 69 69 70 69 70 70 70 70 70 70 70 70 70 70 70 70 70 69 69 68 68 68 68 68 68 68 67 68 68 68 67 67 66 67 67 67 66 66 68 64 64 65 63 62 62 63 61 63 63 63 62 62 62 61 61 61 61 61 62 62 61 61 61 61 62 63 63 62 63 62 61 61 61 61 61 60 60 61 60 60 60
65 66 67 68 68 69 69 69 70 70 69 70 70 70 70 70 70 70 70 70 69 69 68 68 68 68 68 68 68 67 67 67 66 66 66 66 66 66 66 65 64 65 66 63 62 61 61 61 61 62 62 62 62 63 63 63 62 62 62 62 62 62 62 61 61 61 62 62 63 62 63 63 63 62 62 61 62 62 62 62 61 61 60 61 60
65 66 67 68 68 68 69 69 69 69 69 70 70 70 70 70 69 69 69 69 68 68 67 68 68 68 67 68 67 66 66 65 66 66 66 66 66 65 65 64 63 64 65 63 61 60 60 60 59 60 59 60 60 62 63 62 62 63 63 63 62 62 62 61 61 62 62 62 64 63 64 63 63 62 62 63 62 61 61 60 60 60 61 61 60
64 65 66 67 67 68 68 69 68 68 69 69 69 69 69 69 69 70 69 69 68 67 67 67 67 67 67 68 67 66 66 65 66 66 66 65 65 65 64 64 63 63 65 64 61 60 60 59 59 60 59 59 59 62 62 62 62 63 63 62 62 62 62 62 62 61 61 61 62 63 64 64 64 63 63 62 62 61 61 61 61 61 61 61 61
64 64 65 65 67 67 68 68 68 68 69 69 69 69 69 68 69 69 68 69 66 67 67 67 67 66 67 67 67 66 65 66 66 66 65 65 65 64 64 63 63 63 63 62 61 60 59 59 59 59 58 59 59 61 61 62 62 63 63 63 62 62 62 61 61 61 61 61 62 63 64 63 64 63 62 62 62 62 62 63 62 62 61 60 59
64 64 65 65 66 68 67 67 68 68 68 69 68 68 68 68 68 67 67 68 66 66 67 67 66 66 66 66 67 66 66 66 65 65 66 65 64 64 64 63 62 62 62 62 61 60 59 58 59 60 60 59 61 62 61 62 63 63 63 63 63 62 62 62 62 62 62 62 62 64 64 65 65 64 64 63 62 62 61 61 60 61 60 60 60
64 64 65 65 66 67 67 67 67 68 68 68 67 67 67 67 68 67 66 65 65 66 67 67 66 66 66 65 66 66 66 65 65 65 65 64 64 63 63 62 61 61 62 61 61 61 60 60 61 60 60 60 61 61 62 62 62 63 63 63 63 62 62 62 63 63 63 62 62 62 63 64 64 65 66 66 63 61 61 61 61 60 59 59 60
64 64 65 65 66 67 67 67 68 68 67 67 67 66 66 66 66 66 65 65 65 66 66 66 67 66 66 65 65 66 66 65 65 65 65 64 63 63 63 62 61 61 61 61 62 62 62 62 62 61 61 62 62 62 62 62 62 63 63 63 63 63 63 63 63 63 63 61 61 61 61 62 64 64 65 65 65 63 62 63 63 62 61 61 61
64 64 65 65 65 66 66 67 67 67 66 66 66 66 66 66 65 64 64 65 65 66 66 66 66 66 66 65 65 66 66 65 65 65 65 63 63 63 62 63 62 62 63 64 64 62 62 62 62 62 62 62 62 62 63 62 62 63 64 64 63 63 63 63 63 63 62 61 61 61 61 62 63 66 65 63 66 65 63 63 63 62 62 61 60
64 64 65 65 66 66 67 67 67 67 66 66 66 65 65 65 65 65 65 64 65 65 66 66 66 66 66 65 66 66 66 65 65 64 64 63 63 62 62 62 63 63 64 63 63 62 62 62 62 62 64 62 61 61 62 63 63 64 64 64 63 63 63 63 63 62 62 61 60 61 60 60 61 61 63 63 66 66 65 64 63 61 62 61 61
64 64 64 65 66 66 67 66 67 66 66 65 65 65 66 65 66 65 65 64 64 64 65 66 66 65 65 65 66 66 66 65 65 64 64 63 63 62 63 63 63 63 63 63 63 61 62 62 62 62 61 61 62 62 62 63 63 64 64 64 64 64 64 63 63 62 62 60 61 61 61 61 61 62 63 63 67 65 65 64 63 63 61 61 61
64 64 65 65 66 66 66 66 66 65 65 65 65 65 65 66 66 66 65 65 64 65 66 67 66 65 65 65 65 66 65 65 65 64 64 63 63 63 63 63 63 63 63 62 63 62 62 62 61 62 61 61 61 61 62 63 63 64 65 65 65 65 64 64 63 62 61 61 61 61 61 62 62 63 65 62 63 64 63 65 65 63 62 61 61
64 64 64 65 65 65 66 66 66 65 64 65 65 65 65 66 65 66 65 65 65 65 66 67 66 65 65 65 65 66 65 65 65 64 64 63 63 63 63 64 64 63 63 62 62 62 62 62 61 61 61 61 61 62 62 63 64 64 65 65 65 65 64 64 63 62 61 61 60 60 61 62 64 66 62 61 61 62 61 64 65 65 64 62 63
64 64 64 64 64 65 66 66 65 65 65 65 65 64 65 65 65 65 65 65 65 65 66 67 67 66 65 65 65 66 65 65 65 64 64 64 64 63 63 64 64 63 62 62 62 61 61 61 61 60 61 61 61 61 62 63 64 64 64 64 64 64 64 63 63 63 61 61 62 62 62 61 62 62 63 62 62 62 62 64 65 65 64 65 65
64 64 64 64 64 64 65 65 64 64 64 65 65 65 66 66 65 65 65 65 65 65 67 67 66 66 65 65 65 65 65 65 65 65 64 64 63 63 63 63 63 63 62 62 62 62 61 60 61 61 61 60 61 62 63 64 64 63 63 64 64 64 63 63 63 62 61 61 63 64 63 61 62 63 63 63 62 61 61 61 61 62 63 65 65
64 64 64 64 64 64 65 65 64 64 64 64 65 64 65 65 64 65 65 65 66 66 66 66 66 66 65 65 65 65 65 65 64 64 64 64 63 63 63 63 62 62 62 61 61 61 61 61 61 61 61 61 61 62 63 63 63 63 63 63 63 63 63 63 63 63 62 62 63 62 61 62 63 63 62 62 62 62 61 62 63 62 62 63 64
63 63 63 64 64 64 63 64 64 64 64 64 64 63 64 64 64 64 64 66 66 66 66 66 66 65 64 65 65 65 65 65 64 64 64 65 63 63 63 63 62 62 61 61 61 61 61 61 61 61 60 61 61 62 62 63 62 61 62 62 62 63 64 63 62 62 61 61 61 61 62 62 62 62 61 61 61 62 62 63 62 61 62 62 62
63 63 63 63 64 63 63 63 64 64 64 64 64 64 64 65 64 65 65 65 66 65 65 65 65 65 64 64 64 64 64 65 65 64 64 64 63 63 63 63 62 62 61 61 60 63 61 61 61 59 59 60 61 62 62 61 60 60 59 59 60 61 62 62 62 62 63 63 63 62 61 62 62 62 62 62 62 63 63 62 61 61 61 61 61
63 63 61 62 63 63 63 63 64 63 63 64 64 64 64 65 65 65 65 65 66 66 66 65 65 64 64 64 64 64 64 64 64 65 64 63 63 62 62 63 62 63 62 61 61 61 61 61 60 60 60 58 61 63 62 59 59 60 59 58 57 57 58 59 61 62 63 63 63 63 63 62 62 63 62 61 62 62 62 61 61 60 60 61 61
62 62 61 61 62 63 63 63 63 63 63 63 64 64 64 65 65 65 65 65 65 66 65 65 64 64 64 65 64 64 64 64 64 64 64 64 63 63 62 62 62 63 62 61 61 61 61 61 60 60 60 60 61 61 61 59 60 59 56 56 56 56 55 56 58 60 63 63 63 62 63 63 62 63 62 60 60 61 61 60 60 60 60 60 60
61 60 60 60 62 62 63 63 63 63 63 63 64 64 64 65 65 65 65 64 65 65 65 64 64 64 65 64 64 64 64 64 64 64 64 63 63 63 62 62 62 62 62 62 62 61 61 61 60 60 60 60 60 61 61 59 60 58 57 56 54 54 55 57 58 59 61 61 62 61 62 62 63 62 61 61 60 60 61 61 60 60 60 60 59
60 60 59 60 61 62 63 63 63 62 63 63 63 64 64 64 64 63 63 63 63 63 63 63 63 63 64 65 64 64 64 64 64 64 64 63 63 63 62 62 62 63 62 62 62 61 61 61 61 61 60 60 61 61 60 60 60 59 57 55 56 55 55 57 56 54 60 61 61 62 61 61 61 61 60 60 60 60 61 61 60 60 60 59 58
59 59 59 60 61 62 62 61 61 62 63 63 63 63 63 64 63 63 64 63 63 63 64 64 64 63 64 64 64 63 64 64 64 64 63 63 63 63 62 62 63 63 63 63 62 61 61 61 62 61 60 60 60 60 60 60 59 59 59 57 58 57 58 57 55 57 55 58 60 60 60 61 61 60 59 59 59 59 60 61 61 60 58 58 57
59 60 60 61 60 61 61 61 62 62 63 63 63 63 63 63 63 63 64 64 63 63 64 64 64 64 63 63 63 63 63 63 63 63 63 63 63 62 63 63 63 63 64 63 63 62 62 61 62 61 61 61 60 59 59 59 59 58 59 57 57 57 58 55 56 56 56 55 56 60 61 60 61 60 58 58 58 59 60 60 59 58 57 57 56
60 60 60 61 61 61 61 61 62 62 62 62 63 63 63 63 62 63 63 63 63 64 64 64 64 63 62 61 62 62 62 62 63 63 63 63 63 63 63 63 63 63 64 63 62 62 62 61 61 60 60 60 60 60 60 59 59 58 56 55 57 56 55 55 56 55 56 56 56 57 57 60 60 60 59 59 59 58 60 60 60 58 57 56 55
60 60 61 61 61 62 62 62 62 62 62 62 62 63 63 63 63 63 63 62 63 63 63 63 63 62 61 60 61 61 61 61 62 62 62 63 63 63 63 63 64 63 63 62 62 62 62 62 61 61 60 60 60 60 60 60 59 58 57 57 55 54 55 54 54 54 55 55 55 56 57 57 56 58 59 58 58 58 60 60 58 56 55 55 55
59 59 59 60 61 62 62 61 61 63 63 63 63 63 63 63 63 62 62 62 62 62 63 62 62 62 61 60 60 61 61 61 61 62 62 62 63 64 63 63 63 63 63 62 61 62 62 62 61 61 61 60 60 60 59 58 59 58 57 58 57 57 56 54 55 55 54 54 56 57 57 57 56 56 56 57 58 60 60 59 57 55 55 54 54